Regional Weather Roundup
Issued by NWS

Home | Current Version | Previous Version | Graphics & Text | Print | Product List | Glossary On
Versions: 1 2 3 4 5 6 7 8 9 10 11 12 13 14 15 16 17 18 19 20 21 22 23 24 25 26 27 28 29 30 31 32 33 34 35 36 37 38 39 40 41 42 43 44 45 46 47 48 49 50
051
ASUS43 KDMX 141601
RWRIA

WEATHER ROUNDUP FOR IOWA
NATIONAL WEATHER SERVICE DES MOINES IA
1000 AM CST THU DEC 14 2017

NOTE: "FAIR" INDICATES FEW OR NO CLOUDS BELOW 12,000 FEET WITH NO
SIGNIFICANT WEATHER AND/OR OBSTRUCTIONS TO VISIBILITY.

* - THESE STATIONS ARE NOT NWS STATIONS...THUS NOT UNDER NWS
QUALITY CONTROL.  THEY ALSO DO NOT REPORT WEATHER SUCH
AS PRECIPITATION OR FOG.

IAZ001>003-012>014-020>022-031>034-043>046-141700-
   NORTHWEST IOWA

CITY           SKY/WX    TMP DP  RH WIND       PRES   REMARKS
CARROLL *      CLOUDY    27  21  80 CALM      30.06S
CHEROKEE *     CLOUDY    26  24  93 CALM      30.06R
DENISON *      CLOUDY    27  23  86 SE5       30.07S WCI  21
LE MARS *      CLOUDY    30  25  80 S3        30.05S
ORANGE CITY *  CLOUDY    27  27 100 S3        30.04R
SHELDON *      CLOUDY    25  25 100 S5        30.03R WCI  19
SIOUX CITY     CLOUDY    32  26  78 SE3       30.06R
SPENCER        CLOUDY    24  19  81 CALM      30.05R
STORM LAKE *     N/A     25  21  86 CALM      30.04S
$$

IAZ055>058-069>071-079>083-090>094-141700-
   SOUTHWEST IOWA

CITY           SKY/WX    TMP DP  RH WIND       PRES   REMARKS
ATLANTIC *     CLOUDY    28  23  80 CALM      30.08R
AUDUBON *      PTSUNNY   27  21  80 CALM      30.06S
CLARINDA *     CLOUDY    32  25  74 CALM      30.11R
COUNCIL BLFS * CLOUDY    34  32  93 CALM      30.06S
CRESTON *      CLOUDY    28  21  74 N6        30.09R WCI  22
HARLAN  *      CLOUDY    28  25  86 SE5       30.10R WCI  23
LAMONI         CLOUDY    31  20  63 N10       30.07S WCI  22
RED OAK *      CLOUDY    32  25  74 CALM      30.08S
SHENANDOAH *   CLOUDY    34  27  75 CALM      30.09S
$$

IAZ047>049-059>061-072>074-084-141700-
   CENTRAL IOWA

CITY           SKY/WX    TMP DP  RH WIND       PRES   REMARKS
AMES           CLOUDY    25  16  68 CALM      30.08R
ANKENY *       CLOUDY    25  16  68 NE6       30.10S WCI  18
BOONE *        CLOUDY    25  18  74 CALM      30.06S
CHARITON *     CLOUDY    27  18  69 NE5       30.08S WCI  21
DES MOINES     CLOUDY    27  16  63 CALM      30.10R
GRINNELL*      CLOUDY    23  17  78 E5        30.09R WCI  17
KNOXVILLE *    CLOUDY    25  14  63 VRB7      30.08R WCI  17
MARSHALLTOWN   CLOUDY    23  16  74 CALM      30.08R
NEWTON *       CLOUDY    25  16  68 CALM      30.09R
PELLA *        CLOUDY    26  17  67 NW3       30.11R
PERRY *        CLOUDY    26  17  68 CALM      30.09R
$$

IAZ004>006-015-016-023>025-035-036-141700-
   NORTH CENTRAL IOWA

CITY           SKY/WX    TMP DP  RH WIND       PRES   REMARKS
ALGONA *       CLOUDY    23  19  86 S5        30.05S WCI  17
CLARION *      CLOUDY    23  19  86 CALM      30.06S
ESTHERVILLE    CLOUDY    22  18  85 NW6       30.03F WCI  14
FORT DODGE *   CLOUDY    24  17  74 CALM      30.06S
MASON CITY     SUNNY     21  16  81 W5        30.06R WCI  15
FOREST CITY *  PTSUNNY   23  19  86 CALM      30.05S
WEBSTER CITY * CLOUDY    25  18  74 CALM      30.05S
IOWA FALLS *   PTSUNNY   25  18  73 NW3       30.07S
$$

IAZ007>011-017>019-026>030-037>042-050>054-066-141700-
   NORTHEAST IOWA

CITY           SKY/WX    TMP DP  RH WIND       PRES   REMARKS
CEDAR RAPIDS   CLOUDY    21  17  84 CALM      30.09R
CHARLES CITY * CLOUDY    18  16  93 S5        30.07R WCI  11
CLINTON *      PTSUNNY   22  12  65 E5        30.12R WCI  16
DECORAH *      SUNNY     16  14  93 CALM      30.05S
DUBUQUE        MOSUNNY   18  13  80 CALM      30.08R
MONTICELLO *   CLOUDY    23  16  74 VRB3      30.09S
OELWEIN *      CLOUDY    19  18  93 SE7       30.08R WCI  10
WATERLOO       PTSUNNY   19  13  77 CALM      30.08S
$$

IAZ064-065-067-068-078-141700-
   EAST CENTRAL IOWA

CITY           SKY/WX    TMP DP  RH WIND       PRES   REMARKS
DAVENPORT      PTSUNNY   23  15  71 NE5       30.12R WCI  17
IOWA CITY      CLOUDY    24  16  71 CALM      30.13R
MT. PLEASANT * MOSUNNY   24  17  74 N3        30.12R
MUSCATINE *    MOSUNNY   25  18  74 CALM      30.13R
QUAD CITIES    PTSUNNY   24  13  62 E7        30.11R WCI  16
$$

IAZ062-063-075>077-085>089-095>099-141700-
   SOUTHEAST IOWA

CITY           SKY/WX    TMP DP  RH WIND       PRES   REMARKS
BURLINGTON     CLOUDY    26  18  71 N3        30.10S
FAIRFIELD *    CLOUDY    23  14  68 N5        30.10R WCI  17
FORT MADISON * CLOUDY    27  18  69 CALM      30.11R
KEOKUK *       MOSUNNY   27  16  63 N7        30.11R WCI  19
OSKALOOSA *    CLOUDY    24  16  73 E3        30.11R
OTTUMWA          N/A     25  15  66 MISG      30.10R
WASHINGTON *   MOSUNNY   23  18  80 N6        30.12R WCI  16
$$

ABBREVIATIONS USED IN REMARKS
   TC - TEMPERATURES IN CELSIUS
  WCI - WIND CHILL INDEX
   HX - HEAT INDEX
  VSB - VISIBILITY
$$





USA.gov is the U.S. government's official web portal to all federal, state and local government web resources and services.